Find Starlink 3165

NORAD ID: 51471 Int'l Des: 2022-010 Owner: SPXS Country: US Constellation: starlink decayed
LEOCIRCULAR
Vis

Historical Track — Oct 17, 2023

3D地球を読み込み中...

Starlink 3165について

説明を読み込み中...

高度履歴

Loading altitude history...

軌道要素

1 51471U 22010R 23290.60820466 .42665862 12211-4 39450-2 0 9994
2 51471 53.2010 187.3030 0005839 208.1826 231.6702 16.37960387 96157
Epoch: Oct 17, 2023 • Age: 22277 hours

現在のステータス

Position data unavailable
打ち上げ日 Feb 3, 2022
運用期間 4.2 years
落下予定日 Oct 17, 2023
タイプ internet

技術仕様

分類 Payload
質量 297.00 kg
乾燥質量 275.00 kg
総質量 297.00 kg
長さ 0.20 m
直径 2.80 m
スパン 9.00 m
形状 Box + pan
製造者 SPXS
バスタイプ Starlink
フェーズステータス Reentered
所有者/国 SPXS/US

Most Searched